ASL81K LYTV-LYBE

Flight info

Callsign ASL81K
Flight time 0h 39m
Altitude 31000
Route NIK DCT ELGEB
Aircraft E195/M-SDE3GILORVW/S

Departure

Time 2026-05-05 16:24
Airport Tivat Airport (LYTV)

Arrival

Time 2026-05-05 17:04
Airport Belgrade Nikola Tesla Airport (LYBE)
Time Latitude Longitude Altitude Speed Heading
2026-05-05 16:01 42.41166 18.71749 37 ft 0 kts 179°
2026-05-05 16:20 42.41121 18.71745 37 ft 6 kts 160°
2026-05-05 16:20 42.41038 18.71838 37 ft 9 kts 139°
2026-05-05 16:21 42.40928 18.71795 37 ft 10 kts 155°
2026-05-05 16:22 42.40620 18.72148 36 ft 29 kts 139°
2026-05-05 16:22 42.40181 18.72666 36 ft 43 kts 137°
2026-05-05 16:23 42.39741 18.73184 35 ft 22 kts 139°
2026-05-05 16:23 42.39637 18.73265 35 ft 10 kts 167°
2026-05-05 16:23 42.39666 18.73272 35 ft 0 kts 319°
2026-05-05 16:24 42.39710 18.73220 35 ft 36 kts 319°
2026-05-05 16:24 42.40149 18.72703 36 ft 127 kts 319°
2026-05-05 16:24 42.41794 18.70770 1421 ft 162 kts 319°
2026-05-05 16:25 42.42603 18.69665 1961 ft 181 kts 300°
2026-05-05 16:25 42.41827 18.66807 3408 ft 186 kts 220°
2026-05-05 16:25 42.40749 18.65709 3957 ft 192 kts 215°
2026-05-05 16:26 42.38509 18.63595 4126 ft 198 kts 214°
2026-05-05 16:26 42.36226 18.61496 4374 ft 198 kts 213°
2026-05-05 16:27 42.35074 18.60447 4495 ft 199 kts 213°
2026-05-05 16:27 42.33860 18.59651 4605 ft 197 kts 183°
2026-05-05 16:27 42.32590 18.60162 4772 ft 194 kts 138°
2026-05-05 16:27 42.31855 18.61673 4934 ft 193 kts 118°
2026-05-05 16:28 42.31285 18.63316 5038 ft 193 kts 117°
2026-05-05 16:28 42.30730 18.64986 5139 ft 194 kts 116°
2026-05-05 16:28 42.30265 18.66708 5230 ft 196 kts 94°
2026-05-05 16:28 42.30642 18.68417 5373 ft 196 kts 49°
2026-05-05 16:29 42.31775 18.69385 5521 ft 193 kts 21°
2026-05-05 16:29 42.33062 18.70047 5659 ft 213 kts 21°
2026-05-05 16:29 42.34560 18.70808 5897 ft 251 kts 21°
2026-05-05 16:29 42.36319 18.71692 6294 ft 282 kts 20°
2026-05-05 16:30 42.38206 18.72636 7090 ft 295 kts 20°
2026-05-05 16:30 42.40116 18.73589 8137 ft 296 kts 20°
2026-05-05 16:30 42.42023 18.74541 9198 ft 296 kts 20°
2026-05-05 16:30 42.43950 18.75502 10158 ft 298 kts 20°
2026-05-05 16:31 42.45914 18.76483 11020 ft 303 kts 20°
2026-05-05 16:31 42.47917 18.77484 11744 ft 313 kts 19°
2026-05-05 16:31 42.50010 18.78530 12408 ft 325 kts 19°
2026-05-05 16:31 42.52157 18.79604 13136 ft 334 kts 19°
2026-05-05 16:32 42.54344 18.80699 13942 ft 338 kts 19°
2026-05-05 16:32 42.56567 18.81812 14808 ft 341 kts 18°
2026-05-05 16:32 42.58790 18.82926 15644 ft 344 kts 18°
2026-05-05 16:32 42.61035 18.84054 16616 ft 342 kts 18°
2026-05-05 16:33 42.63204 18.85144 17747 ft 333 kts 17°
2026-05-05 16:33 42.65360 18.86227 18699 ft 330 kts 17°
2026-05-05 16:33 42.67506 18.87304 19453 ft 333 kts 17°
2026-05-05 16:33 42.69725 18.88421 20132 ft 339 kts 17°
2026-05-05 16:34 42.71954 18.89543 20799 ft 345 kts 17°
2026-05-05 16:34 42.74183 18.90666 21498 ft 349 kts 17°
2026-05-05 16:34 42.76488 18.91829 22211 ft 352 kts 17°
2026-05-05 16:34 42.78685 18.93347 22762 ft 364 kts 30°
2026-05-05 16:35 42.80847 18.95302 22992 ft 381 kts 31°
2026-05-05 16:35 42.83093 18.97341 23357 ft 394 kts 31°
2026-05-05 16:35 42.85380 18.99417 23963 ft 399 kts 31°
2026-05-05 16:35 42.87709 19.01531 24694 ft 401 kts 31°
2026-05-05 16:36 42.90028 19.03638 25409 ft 403 kts 30°
2026-05-05 16:36 42.92368 19.05766 26106 ft 405 kts 30°
2026-05-05 16:36 42.94750 19.07933 26732 ft 408 kts 30°
2026-05-05 16:36 42.97126 19.10097 27310 ft 412 kts 30°
2026-05-05 16:37 42.99524 19.12284 27887 ft 416 kts 30°
2026-05-05 16:37 43.01958 19.14506 28474 ft 420 kts 30°
2026-05-05 16:37 43.04371 19.16709 29030 ft 424 kts 30°
2026-05-05 16:37 43.06826 19.18954 29586 ft 427 kts 29°
2026-05-05 16:38 43.09318 19.21236 30173 ft 431 kts 30°
2026-05-05 16:38 43.11783 19.23494 30724 ft 434 kts 30°
2026-05-05 16:38 43.14308 19.25809 31120 ft 440 kts 30°
2026-05-05 16:38 43.16830 19.28123 31135 ft 455 kts 30°
2026-05-05 16:39 43.22183 19.33047 31124 ft 468 kts 30°
2026-05-05 16:39 43.27493 19.37941 31127 ft 466 kts 30°
2026-05-05 16:40 43.32861 19.42899 31108 ft 466 kts 30°
2026-05-05 16:40 43.38219 19.47857 31094 ft 465 kts 30°
2026-05-05 16:41 43.43572 19.52822 31095 ft 459 kts 30°
2026-05-05 16:41 43.48792 19.57675 31070 ft 449 kts 30°
2026-05-05 16:42 43.53963 19.62491 30799 ft 451 kts 30°
2026-05-05 16:42 43.56551 19.64905 30311 ft 447 kts 30°
2026-05-05 16:42 43.59124 19.67308 29814 ft 442 kts 31°
2026-05-05 16:43 43.61649 19.69669 29312 ft 437 kts 31°
2026-05-05 16:43 43.64143 19.72002 28830 ft 433 kts 31°
2026-05-05 16:43 43.66633 19.74335 28348 ft 430 kts 31°
2026-05-05 16:43 43.69123 19.76670 27876 ft 428 kts 31°
2026-05-05 16:44 43.71570 19.78967 27397 ft 425 kts 31°
2026-05-05 16:44 43.74015 19.81265 26919 ft 421 kts 31°
2026-05-05 16:44 43.76416 19.83523 26460 ft 418 kts 31°
2026-05-05 16:44 43.78828 19.85794 25992 ft 414 kts 31°
2026-05-05 16:45 43.81184 19.88015 25535 ft 413 kts 31°
2026-05-05 16:45 43.83563 19.90259 25068 ft 410 kts 31°
2026-05-05 16:45 43.85888 19.92454 24609 ft 406 kts 31°
2026-05-05 16:45 43.88226 19.94665 24159 ft 404 kts 31°
2026-05-05 16:46 43.90548 19.96861 23717 ft 402 kts 31°
2026-05-05 16:46 43.92862 19.99052 23264 ft 400 kts 32°
2026-05-05 16:46 43.95144 20.01216 22824 ft 397 kts 32°
2026-05-05 16:46 43.97416 20.03370 22392 ft 394 kts 32°
2026-05-05 16:47 43.99687 20.05528 21964 ft 391 kts 32°
2026-05-05 16:47 44.01933 20.07662 21521 ft 389 kts 32°
2026-05-05 16:47 44.04162 20.09783 21080 ft 387 kts 32°
2026-05-05 16:47 44.06369 20.11885 20646 ft 383 kts 32°
2026-05-05 16:48 44.08554 20.13967 20221 ft 380 kts 33°
2026-05-05 16:48 44.10711 20.16026 19798 ft 378 kts 33°
2026-05-05 16:48 44.12889 20.18042 19371 ft 374 kts 27°
2026-05-05 16:48 44.15427 20.19033 19003 ft 369 kts
2026-05-05 16:49 44.17974 20.19014 18602 ft 369 kts 358°
2026-05-05 16:49 44.20552 20.18907 18178 ft 368 kts 358°
2026-05-05 16:49 44.23105 20.18789 17765 ft 366 kts 358°
2026-05-05 16:49 44.25648 20.18667 17355 ft 364 kts 358°
2026-05-05 16:50 44.28176 20.18543 16954 ft 363 kts 358°
2026-05-05 16:50 44.30703 20.18419 16550 ft 361 kts 358°
2026-05-05 16:50 44.33230 20.18295 16147 ft 360 kts 358°
2026-05-05 16:50 44.35708 20.18173 15755 ft 359 kts 358°
2026-05-05 16:51 44.38216 20.18049 15352 ft 357 kts 358°
2026-05-05 16:51 44.40673 20.17927 14957 ft 356 kts 358°
2026-05-05 16:51 44.43162 20.17804 14557 ft 355 kts 358°
2026-05-05 16:51 44.45634 20.17682 14164 ft 354 kts 358°
2026-05-05 16:52 44.48090 20.17560 13767 ft 352 kts 358°
2026-05-05 16:52 44.50503 20.17440 13388 ft 350 kts 358°
2026-05-05 16:52 44.52924 20.17321 13004 ft 348 kts 358°
2026-05-05 16:52 44.55340 20.17201 12605 ft 346 kts 358°
2026-05-05 16:53 44.57742 20.17081 12215 ft 344 kts 358°
2026-05-05 16:53 44.60120 20.16963 11841 ft 341 kts 358°
2026-05-05 16:53 44.62477 20.16846 11462 ft 335 kts 357°
2026-05-05 16:53 44.64765 20.16732 11082 ft 328 kts 357°
2026-05-05 16:54 44.66980 20.16622 10774 ft 317 kts 357°
2026-05-05 16:54 44.69206 20.16510 10519 ft 310 kts 356°
2026-05-05 16:54 44.71352 20.16403 10194 ft 305 kts 356°
2026-05-05 16:54 44.73461 20.16297 9860 ft 298 kts 356°
2026-05-05 16:55 44.75500 20.15997 9522 ft 291 kts 339°
2026-05-05 16:55 44.77125 20.14464 9266 ft 284 kts 308°
2026-05-05 16:55 44.78274 20.12188 8961 ft 285 kts 302°
2026-05-05 16:55 44.79354 20.09847 8626 ft 284 kts 301°
2026-05-05 16:56 44.80397 20.07528 8311 ft 283 kts 301°
2026-05-05 16:56 44.81446 20.05170 7997 ft 281 kts 300°
2026-05-05 16:56 44.82474 20.02847 7755 ft 278 kts 301°
2026-05-05 16:56 44.83494 20.00532 7468 ft 278 kts 300°
2026-05-05 16:57 44.84516 19.98209 7163 ft 277 kts 300°
2026-05-05 16:57 44.85532 19.95937 6861 ft 276 kts 306°
2026-05-05 16:57 44.87054 19.94323 6575 ft 279 kts 340°
2026-05-05 16:57 44.89011 19.94130 6142 ft 288 kts 12°
2026-05-05 16:58 44.90792 19.95351 5788 ft 284 kts 32°
2026-05-05 16:58 44.92453 19.96838 5418 ft 282 kts 32°
2026-05-05 16:58 44.93771 19.98653 5097 ft 267 kts 63°
2026-05-05 16:58 44.94112 20.01053 4904 ft 244 kts 96°
2026-05-05 16:59 44.93599 20.03340 4375 ft 243 kts 115°
2026-05-05 16:59 44.92884 20.05410 4036 ft 227 kts 118°
2026-05-05 16:59 44.92185 20.07330 3759 ft 214 kts 120°
2026-05-05 16:59 44.91453 20.09142 3496 ft 211 kts 121°
2026-05-05 17:00 44.90698 20.10916 3264 ft 213 kts 122°
2026-05-05 17:00 44.89923 20.12693 2978 ft 213 kts 122°
2026-05-05 17:00 44.89141 20.14470 2690 ft 210 kts 122°
2026-05-05 17:00 44.88375 20.16205 2419 ft 205 kts 122°
2026-05-05 17:01 44.87628 20.17894 2137 ft 200 kts 122°
2026-05-05 17:01 44.86903 20.19531 1886 ft 192 kts 122°
2026-05-05 17:01 44.86227 20.21057 1651 ft 176 kts 122°
2026-05-05 17:01 44.85610 20.22451 1406 ft 157 kts 122°
2026-05-05 17:02 44.85062 20.23685 1195 ft 138 kts 122°
2026-05-05 17:02 44.84586 20.24759 1017 ft 125 kts 122°
2026-05-05 17:02 44.84121 20.25807 874 ft 125 kts 122°
2026-05-05 17:02 44.83661 20.26844 705 ft 127 kts 122°
2026-05-05 17:03 44.83197 20.27887 551 ft 126 kts 122°
2026-05-05 17:03 44.82726 20.28938 397 ft 127 kts 122°
2026-05-05 17:03 44.82278 20.29942 339 ft 105 kts 121°
2026-05-05 17:03 44.81980 20.30612 339 ft 58 kts 122°
2026-05-05 17:04 44.81795 20.31027 340 ft 33 kts 122°
2026-05-05 17:04 44.81729 20.31152 340 ft 16 kts 133°
2026-05-05 17:04 44.81614 20.31229 340 ft 19 kts 173°
2026-05-05 17:04 44.81487 20.31168 340 ft 19 kts 216°
2026-05-05 17:05 44.81488 20.31008 340 ft 18 kts 302°
2026-05-05 17:05 44.81560 20.30846 339 ft 19 kts 300°
2026-05-05 17:05 44.81632 20.30676 339 ft 20 kts 301°
2026-05-05 17:05 44.81710 20.30498 339 ft 21 kts 301°
2026-05-05 17:06 44.81793 20.30312 339 ft 22 kts 302°
2026-05-05 17:06 44.81879 20.30120 339 ft 23 kts 302°
2026-05-05 17:06 44.81969 20.29919 339 ft 24 kts 302°
2026-05-05 17:06 44.82061 20.29714 339 ft 25 kts 302°
2026-05-05 17:07 44.82108 20.29605 339 ft 6 kts 299°
2026-05-05 17:07 44.82092 20.29525 339 ft 4 kts 213°
2026-05-05 17:07 44.82086 20.29465 339 ft 10 kts 296°
2026-05-05 17:07 44.82139 20.29343 339 ft 18 kts 301°
2026-05-05 17:08 44.82175 20.29260 339 ft 2 kts 302°
2026-05-05 17:08 44.82188 20.29207 339 ft 8 kts 240°
2026-05-05 17:08 44.82156 20.29171 339 ft 0 kts 212°
2026-05-05 17:08 44.82149 20.29165 339 ft 0 kts 212°
2026-05-05 17:09 44.82148 20.29164 339 ft 1 kts 212°
2026-05-05 17:09 44.82132 20.29150 339 ft 0 kts 212°